User: anonymous   Login
Location: Unspecified
(0.0000°N, 0.0000°E)
Time: 16:39:11
(UTC+00:00)
Language:

Tiros 3 - Orbit

View from above orbital plane
View from above orbital plane
View from above satellite
View from above satellite

Ground track
Ground track

The orbit data is extracted from the following two-line orbital elements,

1 00162U 61017A   18169.90172877 -.00000125  00000-0  10991-4 0  9993
2 00162  47.9004 310.9279 0045378 252.5670 107.0258 14.44005789994894
Epoch (UTC): 18 June 2018 21:38:29
Eccentricity: 0.0045378
inclination: 47.9004°
perigee height: 713 km
apogee height: 777 km
right ascension of ascending node: 310.9279°
argument of perigee: 252.5670°
revolutions per day: 14.44005789
mean anomaly at epoch: 107.0258°
orbit number at epoch: 99489

The dashed part of the orbit path shows where the satellite is in the earth's shadow,  

DLR